Location: Bogis-Bossey
(46.3500°N, 6.1667°E)
Time: 18:30:43
(UTC+00:00)

USA 238 DEB - Pass Details

Date: 29 February 2024
Orbit: 926 x 1285 km, 63.4° (Epoch: 21 April)

Event Time Altitude Azimuth Distance (km) Brightness Sun altitude
Exits shadow 05:21:09 13° 273° (W) 2,562 5.0 -10.2°
Maximum altitude 05:26:10 31° 331° (NNW) 1,743 4.6 -9.3°
Drops below altitude 10° 05:32:16 10° 32° (NNE) 2,968 6.4 -8.3°
Sets 05:35:27 0° 42° (NE) 3,991 7.3 -7.7°
